Location: Dodge City Co - Operative Exchange Grain Elevator Number 8
(38.1218°N, 99.7124°W)
Time: 08:45:20
(UTC+00:00)

Cosmos 1140 Rocket - Pass Details

Date: 03 March 2021
Orbit: 745 x 766 km, 74.1° (Epoch: 13 April)

Event Time Altitude Azimuth Distance (km) Brightness Sun altitude
Rises 12:00:22 0° 183° (S) 3,212 6.7 -14.0°
Reaches altitude 10° 12:02:46 10° 179° (S) 2,288 6.0 -13.5°
Maximum altitude 12:07:48 52° 104° (ESE) 940 4.4 -12.5°
Drops below altitude 10° 12:12:50 10° 28° (NNE) 2,291 6.4 -11.5°
Sets 12:15:14 0° 24° (NNE) 3,217 7.1 -11.1°
